Powrót do katalogu

NAVSTAR 15

USA 42

AktywnyNawigacjaMEO
NORAD 20185·PAYLOAD·🇺🇸 United States

Wystrzelony Aug 18, 1989 z Cape Canaveral Space Force Station

Loading…

Następne Przeloty (najbliższe 24 godziny)

TLE

ŚwieżeSource: Space-Track

Epoka: Sep 7, 2026, 22:27 UTC

1 20185U 89064A   26250.93546580  .00000025  00000-0  00000-0 0  9995
2 20185  55.0361  86.5492 0008642 346.8131 191.2167  1.86088523257741

Śledź NAVSTAR 15 w czasie rzeczywistym z AllMySat

Download on the App Store